DECAYED

NOAA 16 DEB, 42412 (Decayed)

Orbit data source: Space-Track

NOAA 16 DEB, 42412 was space debris in SSO originally from a launch on Thu, 21 Sep 2000 UTC launched from the Air Force Western Test Range (AFWTR). Debris objects in space refer to the collection of defunct objects orbiting the Earth. Examples of debris include non-operational satellites, rocket bodies, and fragments generated from explosions, collisions, or faulty payload assembly.

Not visible in the next 10 days
Identifier
42412, 2000-055TG
Orbit
Decayed
Country
Flag of USUS
Related business
Manufacturer
Unknown
Mission
Decayed spacecraft
Bus & Motor
Unknown
Mass
Unknown
Launch date (UTC)
Icon of a cake. It is the launch day of the satellite!2000-09-21 (26 years ago)
Launch vehicle
Unknown
Launch site
Air Force Western Test Range (AFWTR)
Object type
Payload
Rocket body
Debris
Shape & HBR
Unknown shape, 0.1 m
Radar Cross Section
Small (<0.1 m²)

Expand to show TLE details & history
Last TLE update: 11 months ago

TLE from 11 months ago
0 NOAA 16 DEB
1 42412U 00055TG  25298.38191848  .04601745  00000-0  33125-1 0  9993
2 42412  98.7569  86.5309 0031048 313.7224  46.1462 15.68922002500090
Epoch: 2025-10-25T09:09Z
TLE epoch observation values (Epoch: 2025-10-25T09:09:57.756Z)
Latitude
-0.00008°
Longitude
-84.97301°
Altitude
350.628 km
Speed
7.707 km/s
True Right ascension
05h 46m 07s
True Declination
0° 00' 00"
Sunlit
Object was in full shadow at epoch
Visualization orbit readout
Latitude
Unknown
Longitude
Unknown
Altitude
Unknown
Speed
Unknown
Apparent Right ascension
Unknown
Apparent Declination
Unknown
Sunlit
N/A
Visualization observer readout
Local Sidereal Time
17:09:57
Azimuth
Unknown
Elevation
Unknown
Doppler factor
Unknown
Orbital elements
Apogee altitude
379.865 km
Perigee altitude
338.031 km
Semi-major axis
6,737.085 km
Eccentricity
0.0031
Inclination
98.7569°
RAAN
86.5309°
Arg. of periapsis
313.7224°
True anomaly
46.40345°
Mean anomaly
46.1462°
Eccentric anomaly
46.27476°
Mean motion
3.92496 °/min
Orbital period
91.72 mins
BSTAR
0.033125
Loading maneuver chart data...
Computing Atmospheric mass density...
Loading historical data...
Loading historical data...
Loading historical data...
Loading historical data...
Loading historical data...
Loading historical data...
Loading historical data...

Documentation

Showing up to 5 results
|